Location: Elstree
(51.6403°N, 0.2969°W)
Time: 19:07:29
(UTC+00:00)

SL-8 Rocket - Pass Details

Date: 03 March 2021
Orbit: 957 x 991 km, 82.9° (Epoch: 17 April)

Event Time Altitude Azimuth Distance (km) Brightness Sun altitude
Rises 19:51:53 0° 188° (S) 3,668 6.9 -20.3°
Reaches altitude 10° 19:54:23 10° 189° (S) 2,720 6.3 -20.7°
Maximum altitude 20:00:38 88° 280° (W) 979 3.9 -21.6°
Drops below altitude 10° 20:06:53 10° 10° (N) 2,715 6.4 -22.5°
Sets 20:09:23 0° 11° (N) 3,662 7.1 -22.9°
